644  
ASUS43 KIWX 222110  
RWRIWX  
 
KIWX WEATHER ROUNDUP  
NATIONAL WEATHER SERVICE NORTHERN INDIANA  
500 PM EDT MON JUL 22 2019  
 
NOTE: "FAIR" INDICATES FEW OR NO CLOUDS BELOW 12,000 FEET WITH NO  
SIGNIFICANT WEATHER AND/OR S TO VISIBILITY
.  
 
* THESE STATIONS ARE NOT UNDER NWS QUALITY CONTROL. THEY ALSO MAY NOT  
REPORT WEATHER SUCH AS PRECIPITATION OR FOG.
 
 
INZ001>027-222200-  
NORTHERN INDIANA  
 
CITY SKY/WX TMP DP RH WIND PRES REMARKS
 
GARY* MOSUNNY 73 52 46 N20G32 30.08S  
VALPARAISO FAIR 73 53 49 N14G29 30.06S  
MICHIGAN CITY* FAIR 70 36 28 N14G22 30.06R  
LAPORTE* FAIR N/A N/A N/A N21G29 30.06R  
KNOX* FAIR 70 55 60 MISG 30.03S  
SOUTH BEND FAIR 72 59 63 N18G26 30.03R  
ELKHART* MOSUNNY 73 59 60 NW13 30.00F  
GOSHEN FAIR 75 57 53 N14G24 29.99F  
MONTICELLO* FAIR 73 54 51 NW15G24 30.02R  
LOGANSPORT* FAIR 72 55 56 N13 30.03R  
ROCHESTER* FAIR 75 54 46 NW15G23 30.01S  
WARSAW* FAIR 72 57 60 N8 29.99F  
KENDALLVILLE* FAIR 71 54 54 N9 29.99S  
AUBURN* FAIR 72 59 64 NW8 29.99S  
FORT WAYNE PTSUNNY 74 58 57 NW10 29.98S  
HUNTINGTON* FAIR 71 52 51 NW6 29.99S  
PERU/GRISSOM FAIR 73 58 58 NW14 30.00S  
 

 
INZ028>050-222200-  
CENTRAL INDIANA  
 
CITY SKY/WX TMP DP RH WIND PRES REMARKS
 
LAFAYETTE PTSUNNY 75 60 59 N10 30.02S  
KOKOMO* FAIR 74 59 59 NW15 30.01S  
MUNCIE* FAIR 74 64 71 N9 29.98S  
INDIANAPOLIS PTSUNNY 74 64 71 N12 30.00R  
 

 
MIZ043>046-050>051-056>058-064>065-071>073-077>080-222200-  
SOUTHWEST LOWER MICHIGAN  
 
CITY SKY/WX TMP DP RH WIND PRES REMARKS
 
BATTLE CREEK PTSUNNY 76 56 49 N14 29.99S  
BENTON HARBOR FAIR 71 57 61 VRB7G22 30.03S  
COLDWATER* FAIR 73 55 53 N10 29.98F  
HILLSDALE* FAIR 72 55 55 N10 29.98S  
HOLLAND FAIR 74 58 57 NW13G25 30.02R  
GRAND RAPIDS FAIR 78 54 43 N10 29.99S  
KALAMAZOO PTSUNNY 76 54 46 N10 29.99F  
STURGIS* PTSUNNY 76 58 53 N9G20 29.98F  
THREE RIVERS* FAIR 78 57 48 N10 30.00  
 

 
OHZ001>008-015>018-024>025-222200-  
NORTHWEST OHIO  
 
CITY SKY/WX TMP DP RH WIND PRES REMARKS
 
WAUSEON* FAIR 73 61 64 N12G17 29.95S  
DEFIANCE FAIR 76 61 59 N8 29.95F  
FINDLAY FAIR 76 60 57 NW10 29.93S  
OTTAWA* FAIR N/A N/A N/A N7 29.97S  
TOLEDO EXPRESS FAIR 78 59 51 NW10 29.93F  
LIMA FAIR 72 62 71 NW7 29.95S  
 

 
AND FOR LAKE MICHIGAN COASTAL AND OPEN LAKE BUOY OBSERVATIONS  
 
STATION/POSITION TEMP WIND PRES VSBY WAVE
 
AIR SEA DIR/SP/G HT/PER  
(F) (DEG/KT/KT) (MB) (MI) (FT/S)  
CALUMET HARBOR 71 330/ 12/ 20 1017.9  
MICHIGAN CITY 68 350/ 26/ 27 N/A  
BURNS HARBOR 69 360/ 11/ 14 1018.3R  
SAINT JOSEPH 65 360/ 14/ 18 1017.9  
SOUTH LAKE BUOY 67 68 350/ 17/ 21 1018.2R 4/ 6  
4 MI NW BRIDGMAN 65 55 340/ 17/ 25 1017.2 6/ 6  
MICHIGAN CITY 69 66 350/ 19/ 25 N/A 8/ 7  
 

 

 
 
 
CLICK HERE TO GO TO PREVIOUS BULLETINS.

The Nexlab IN Page
The Nexlab OH Page
The Nexlab MI Page Main Text Page